This is the latest recevied weather packets stored in our database for station/object N7JP. If no packets are shown the sender has not sent any weather packets the latest 10 day(s).
| Time | Temp. | Humidity | Pressure | Rain* | Wind** | Luminosity | Snow |
|---|---|---|---|---|---|---|---|
| 1777736414 | 12.22° C | 87% | 1012.2 hPa | 0 mm | - | - | - |
| 1777735513 | 11.67° C | 87% | 1012.3 hPa | 0 mm | - | - | - |
| 1777734609 | 11.11° C | 86% | 1012.3 hPa | 0 mm | - | - | - |
| 1777733709 | 10.56° C | 86% | 1012.2 hPa | 0 mm | - | - | - |
| 1777732807 | 10.56° C | 86% | 1012.2 hPa | 0 mm | - | - | - |
| 1777731892 | 10° C | 86% | 1012.1 hPa | 0 mm | - | - | - |
| 1777730991 | 10° C | 86% | 1012.1 hPa | 0 mm | - | - | - |
| 1777730093 | 10° C | 87% | 1011.9 hPa | 0 mm | - | - | - |
| 1777729172 | 9.44° C | 87% | 1011.8 hPa | 0 mm | - | - | - |
| 1777728260 | 8.89° C | 87% | 1011.9 hPa | 0 mm | - | - | - |
| 1777727357 | 8.33° C | 88% | 1011.8 hPa | 0 mm | - | - | - |
| 1777726458 | 8.33° C | 89% | 1011.9 hPa | 0 mm | - | - | - |
| 1777725541 | 8.33° C | 89% | 1011.9 hPa | 0 mm | - | - | - |
| 1777724638 | 8.33° C | 89% | 1012.1 hPa | 0 mm | - | - | - |
| 1777723738 | 8.89° C | 89% | 1012.1 hPa | 0 mm | - | - | - |
| 1777722830 | 8.89° C | 89% | 1012.3 hPa | 0 mm | - | - | - |
| 1777721930 | 9.44° C | 88% | 1012 hPa | 0 mm | - | - | - |
| 1777721006 | 8.89° C | 89% | 1011.7 hPa | 0 mm | - | - | - |
| 1777720106 | 9.44° C | 89% | 1011.6 hPa | 0 mm | - | - | - |
| 1777719207 | 9.44° C | 89% | 1011.5 hPa | 0 mm | - | - | - |
| 1777718307 | 8.89° C | 90% | 1011.7 hPa | 0 mm | - | - | - |
| 1777717401 | 8.89° C | 90% | 1011.9 hPa | 0 mm | - | - | - |
| 1777716481 | 9.44° C | 90% | 1011.8 hPa | 0 mm | - | - | - |
| 1777715572 | 9.44° C | 90% | 1011.8 hPa | 0 mm | - | - | - |
| 1777714673 | 10° C | 90% | 1011.8 hPa | 0 mm | - | - | - |
* Rain latest hour (hover to see other rain measurements)
** Current wind speed in m/s (hover to see current wind gust speed)